FW9176 Weather Reports


Display with metric or nautical units.
time (UTC)temp
F
wind
direction
speed
MPH
gust
MPH
rain 1hr
in
rain 24hr
in
rain mn
in
humidity
%
barometer
mb
20260504120104 51 0 0.0 2.0 0.00 0.01 0.00 76 1002.1
20260504100115 50 0 0.0 0.0 0.00 0.01 0.00 76 1002.3
20260504081556 52 0 0.0 1.0 0.00 0.01 0.00 74 1002.1
20260504060108 58 0 0.0 2.0 0.00 0.01 0.00 65 1003.4
20260504050113 59 217 0.0 2.0 0.00 0.01 0.00 65 1003.7
20260504044602 58 0 0.0 3.0 0.00 0.01 0.01 65 1003.6
20260504043101 58 191 0.0 2.0 0.00 0.01 0.01 65 1003.6
20260504041549 58 188 0.0 3.0 0.00 0.01 0.01 64 1003.6
20260504040104 59 162 0.0 3.0 0.00 0.01 0.01 63 1003.7
20260504034616 59 179 0.0 3.0 0.00 0.01 0.01 63 1003.9
20260504033103 59 0 0.0 3.0 0.00 0.01 0.01 62 1004.2
20260504031604 60 174 0.0 4.0 0.00 0.01 0.01 61 1004.2
20260504030054 60 161 0.0 4.0 0.00 0.01 0.01 61 1004.3
20260504024557 60 0 0.0 2.0 0.00 0.01 0.01 60 1004.3
20260504023057 61 138 0.0 4.0 0.00 0.01 0.01 59 1004.2
20260504021556 61 0 0.0 5.0 0.00 0.01 0.01 58 1004.2
20260504020104 62 0 0.0 2.0 0.00 0.01 0.01 57 1004.0
20260504014600 62 0 0.0 3.0 0.00 0.01 0.01 56 1004.0
20260504013105 63 0 0.0 6.0 0.00 0.01 0.01 54 1003.7
20260504011554 64 0 0.0 2.0 0.00 0.01 0.01 53 1003.5
20260504010052 64 0 0.0 5.0 0.00 0.01 0.01 51 1003.5
20260504004548 66 0 1.0 4.0 0.00 0.01 0.01 49 1003.6
20260504003048 66 0 0.0 6.0 0.00 0.01 0.01 48 1003.7
20260504001556 68 278 0.0 3.0 0.00 0.01 0.01 46 1003.7
20260504000057 68 0 2.0 10.0 0.00 0.01 0.01 44 1003.5
20260503234555 69 274 2.0 8.0 0.00 0.01 0.01 42 1003.7
20260503233051 70 0 1.0 8.0 0.00 0.01 0.01 42 1003.6
20260503231552 70 243 0.0 5.0 0.00 0.01 0.01 42 1003.6
20260503230106 68 216 0.0 7.0 0.00 0.01 0.01 43 1004.0
20260503224558 69 159 1.0 7.0 0.00 0.01 0.01 42 1004.1
20260503223050 68 291 1.0 7.0 0.00 0.01 0.01 43 1004.3
20260503221602 67 285 2.0 11.0 0.00 0.01 0.01 43 1004.5
20260503220057 67 139 1.0 8.0 0.00 0.01 0.01 44 1004.6
20260503214550 66 75 2.0 9.0 0.00 0.01 0.01 43 1004.7
20260503213102 66 15 3.0 10.0 0.00 0.01 0.01 43 1004.9
20260503211610 66 47 2.0 13.0 0.00 0.01 0.01 42 1005.2
20260503210057 65 169 5.0 12.0 0.00 0.01 0.01 42 1005.5
20260503204553 64 230 4.0 14.0 0.00 0.01 0.01 42 1005.8
20260503203057 64 245 2.0 11.0 0.00 0.01 0.01 42 1006.1
20260503201554 65 43 3.0 12.0 0.00 0.01 0.01 43 1006.2
20260503200058 64 108 3.0 12.0 0.00 0.01 0.01 46 1006.4
20260503194602 63 243 3.0 17.0 0.00 0.01 0.01 46 1006.6
20260503193101 62 339 2.0 12.0 0.00 0.01 0.01 51 1006.6
20260503191555 60 217 2.0 11.0 0.00 0.01 0.01 56 1006.9
20260503190056 59 207 4.0 18.0 0.00 0.01 0.01 58 1007.3
20260503184601 58 217 2.0 10.0 0.00 0.01 0.01 60 1007.6
20260503183052 55 207 3.0 10.0 0.01 0.01 0.01 65 1007.9
20260503181610 54 108 3.0 10.0 0.01 0.01 0.01 65 1008.2
20260503180112 53 214 1.0 6.0 0.01 0.01 0.01 71 1008.6
20260503174556 52 176 1.0 7.0 0.01 0.01 0.01 72 1009.8
20260503173102 52 155 2.0 8.0 0.00 0.00 0.00 73 1010.0
20260503171552 51 169 2.0 7.0 0.00 0.00 0.00 73 1010.4
20260503150108 54 250 1.0 7.0 0.00 0.00 0.00 57 1011.3